EHI
39 45 52 55 58 60 60 55 51 49 44 39 38 37 36 35 33 32 32 31 26 19 15 14 17 18 18 17 15 14 12 10 7 5 5 6 9 10 9 7 6 7 8
43 47 53 54 55 57 56 53 50 46 42 39 39 38 37 35 33 32 31 30 27 21 15 13 15 17 16 15 13 12 12 10 7 5 5 6 8 10 9 8 7 7 7
45 50 53 53 53 52 50 47 47 45 41 39 39 38 37 35 33 32 31 28 26 21 16 12 13 15 15 13 12 10 10 8 7 6 6 7 8 9 9 8 7 7 7
43 49 53 53 51 47 43 43 45 46 42 39 38 38 37 34 33 32 30 27 24 21 16 13 13 14 13 12 11 10 8 8 7 7 7 8 9 8 8 8 8 7 7
38 44 50 52 49 44 41 41 45 46 42 38 37 38 36 35 34 32 30 27 24 21 17 14 13 12 12 12 12 11 9 8 8 7 7 8 8 9 7 6 7 8 8
34 40 46 50 50 45 42 41 44 44 42 38 37 37 37 35 35 33 29 26 25 23 18 14 13 12 11 12 13 13 12 10 9 8 7 7 8 9 8 6 6 8 9
32 38 44 49 50 48 46 44 43 44 42 38 35 35 34 32 32 30 25 24 25 24 20 15 14 14 12 12 14 14 14 12 9 8 7 7 7 8 8 7 7 8 8
29 35 43 47 49 50 49 46 44 43 41 37 33 32 30 28 27 26 24 22 22 21 19 16 15 15 13 13 13 14 14 12 10 8 8 8 7 7 7 7 8 7 6
25 30 39 46 49 50 50 46 43 41 39 35 31 28 27 26 24 23 22 21 19 17 17 17 16 15 13 13 14 15 14 13 11 10 10 10 9 7 6 7 8 7 7
23 27 36 45 49 51 49 45 41 40 37 32 28 27 26 24 22 20 20 19 16 15 17 17 16 15 14 14 15 15 14 13 13 12 11 11 11 9 8 7 7 8 8
23 27 34 40 46 49 48 44 41 40 36 30 29 30 27 23 20 19 19 17 15 15 17 17 17 16 15 15 16 16 14 14 14 13 11 11 12 11 10 8 7 8 9
25 29 32 35 40 43 45 43 41 39 34 30 30 31 27 23 21 20 20 18 16 15 16 17 17 17 15 15 16 16 15 15 15 13 11 10 11 12 12 10 9 8 7
29 32 34 35 37 39 40 40 38 35 32 29 28 28 26 23 22 21 20 18 16 15 16 17 18 17 15 15 15 16 16 17 17 15 12 11 12 13 13 12 10 8 8
33 36 39 38 38 37 37 35 34 33 32 29 27 26 26 24 22 20 19 18 17 17 17 17 17 17 15 14 14 16 17 19 18 16 14 13 14 14 14 12 10 10 10
33 35 38 38 37 36 34 33 33 34 33 31 29 28 28 25 22 20 20 20 18 17 17 17 17 15 13 12 13 15 18 19 19 17 15 13 13 13 11 9 8 10 12
29 31 34 36 36 35 35 34 34 34 33 31 31 31 30 27 24 21 20 20 18 16 16 17 16 13 11 11 11 13 15 17 17 16 15 13 10 8 6 4 4 6 9
28 30 33 35 37 37 37 35 33 31 30 29 30 32 31 28 25 22 20 21 20 16 14 14 14 12 10 9 8 9 11 12 14 15 14 12 8 6 5 3 2 3 4
29 31 32 33 36 37 36 33 29 28 28 26 27 29 28 27 25 22 21 21 19 14 12 12 13 12 10 7 5 5 7 9 11 11 11 9 7 5 6 5 3 2 2
26 28 29 29 32 35 34 29 26 25 26 24 23 23 24 24 24 22 20 19 15 11 10 11 12 12 9 5 3 4 7 9 9 9 8 6 4 3 3 4 4 3 3
22 23 24 25 29 31 31 28 24 23 23 22 20 20 21 22 22 21 19 16 13 10 9 10 11 11 8 4 1 3 7 9 9 9 7 4 1 0 1 3 4 4 3
20 20 21 24 27 29 29 28 26 24 22 20 18 18 19 21 21 20 17 14 13 11 10 10 11 11 8 4 1 1 5 8 9 7 5 2 0 0 0 2 3 3 2
18 18 19 22 26 29 28 26 25 23 20 19 18 17 18 19 19 18 16 14 13 12 11 12 13 12 8 3 1 0 2 4 5 4 3 2 0 0 0 0 1 1 1
16 17 18 20 24 25 24 21 20 19 18 19 19 18 17 17 16 15 14 13 13 13 12 12 13 12 7 3 0 0 0 1 1 1 1 1 0 0 0 0 0 0 0
16 16 17 17 18 18 17 17 17 18 18 18 19 17 15 13 12 11 10 9 9 10 10 11 11 10 6 2 1 0 0 0 0 0 0 0 0 0 0 0 0 0 0
16 16 15 15 13 11 11 13 15 18 19 18 17 15 11 9 7 6 5 5 5 5 6 7 8 7 4 2 1 0 0 0 0 0 0 0 0 0 0 0 0 0 0
15 15 14 13 11 9 8 9 11 15 18 18 16 12 8 7 5 4 3 2 3 3 4 5 6 5 2 1 0 0 0 0 0 0 0 0 0 0 0 0 0 0 0
Wind_Speed
8 9 10 11 10 8 7 6 5 4 3 3 3 2 2 2 2 2 3 2 2 1 1 1 1 1 1 1 1 1 1 1 1 1 1 1 2 3 3 2 3 4 4
10 8 8 9 9 8 7 6 5 5 4 3 2 2 2 2 2 2 2 2 1 1 2 1 1 1 2 2 1 1 1 1 2 1 1 1 1 2 4 3 3 3 3
12 10 9 8 9 9 8 7 5 5 3 3 2 2 2 1 2 2 2 1 1 1 0 1 0 1 1 1 1 1 1 2 2 1 1 1 1 1 1 3 3 3 3
13 12 10 9 9 9 8 6 6 5 4 3 2 3 2 2 2 2 2 2 1 1 1 1 1 1 1 1 1 1 1 1 1 1 1 1 0 0 0 1 2 3 3
11 12 11 10 8 8 8 7 6 5 4 3 3 2 2 2 2 2 2 3 2 2 1 1 1 1 1 1 1 0 1 1 1 1 1 1 1 2 1 1 1 1 2
11 10 10 10 8 8 8 8 7 5 4 4 3 2 2 2 2 2 2 2 2 2 2 1 1 1 1 1 1 1 1 1 1 1 1 1 1 1 1 1 1 1 1
11 11 11 11 10 9 9 9 8 6 5 4 4 3 2 2 2 2 2 1 1 2 2 1 1 1 2 1 1 1 1 2 1 1 1 1 2 1 1 1 1 1 1
9 11 11 10 10 10 9 9 9 7 6 5 4 3 3 3 2 1 1 1 1 1 2 2 2 2 2 2 2 2 2 1 2 2 1 1 2 2 1 1 1 1 1
7 8 9 10 9 9 8 8 8 7 6 6 5 4 3 2 2 2 2 1 1 1 2 1 1 2 2 2 2 2 2 2 2 1 1 1 2 1 2 2 1 1 1
7 7 7 9 8 8 7 7 7 7 6 6 5 5 4 3 2 2 1 1 1 0 1 1 1 1 2 2 1 1 1 2 2 2 1 1 1 1 1 2 2 1 1
6 6 6 6 7 7 8 7 6 6 6 6 4 4 5 4 3 3 2 2 1 1 1 1 1 2 2 2 2 2 2 2 2 2 2 2 2 1 1 2 1 1 1
5 6 6 7 7 7 7 6 5 5 5 5 4 4 4 4 3 3 2 2 2 2 2 2 2 2 2 2 2 3 2 2 2 2 1 2 1 1 1 1 1 1 1
5 5 5 5 5 5 6 5 5 4 4 5 5 4 4 4 3 3 2 2 2 2 2 2 2 2 2 2 2 3 3 2 2 1 1 1 1 1 1 1 1 1 2
5 5 4 2 2 3 4 5 5 4 4 4 4 4 4 3 3 3 3 3 3 2 2 2 2 2 2 2 2 2 2 2 1 1 1 1 1 1 1 1 1 1 2
4 4 4 2 2 2 2 3 4 4 3 3 4 4 4 4 4 3 3 3 3 3 2 3 3 3 2 1 1 2 2 2 1 1 1 1 1 1 1 1 1 1 1
3 4 3 2 1 1 1 2 2 3 3 3 4 3 3 4 4 4 4 4 3 2 2 2 2 1 1 1 1 1 2 2 2 2 2 2 3 3 3 2 3 4 3
3 4 3 2 1 1 1 1 1 2 3 3 3 3 3 4 4 5 4 3 2 2 2 2 1 1 1 1 1 1 2 3 3 2 2 3 2 3 2 2 3 3 4
4 3 2 2 2 2 1 1 1 2 2 2 2 2 2 3 3 3 3 2 2 2 1 1 1 1 1 2 2 2 3 3 2 2 2 2 1 1 1 2 2 2 2
4 3 3 2 1 1 1 1 0 1 2 2 2 2 2 2 2 3 3 2 2 1 2 2 1 1 1 2 3 2 2 3 3 2 1 1 1 1 0 2 2 3 2
4 3 2 2 2 2 1 1 0 1 2 2 2 2 2 2 2 3 3 2 2 2 2 1 1 1 2 2 2 2 2 2 2 1 1 2 2 2 1 2 2 3 3
3 3 2 2 2 1 1 1 0 1 1 1 1 2 1 2 3 3 2 2 2 2 1 1 1 1 2 3 2 2 2 2 2 1 1 1 2 2 2 2 3 4 4
2 2 2 2 2 2 1 1 1 1 1 1 1 1 2 2 2 2 2 2 2 2 2 1 1 1 2 3 3 3 2 2 2 1 0 1 3 2 3 4 5 6 5
2 2 1 2 2 2 1 1 1 1 1 2 1 1 1 2 2 2 2 2 1 2 2 2 1 1 1 3 3 3 2 1 1 1 1 1 4 4 4 6 7 5 4
1 1 1 2 1 2 1 1 1 1 1 1 1 1 1 2 2 1 1 1 1 1 1 1 1 1 1 2 1 1 1 1 1 1 2 3 5 5 5 4 4 4 4
1 1 1 2 1 1 1 1 1 1 1 0 1 0 1 1 2 1 1 1 2 1 1 1 1 0 1 0 1 1 1 1 0 2 2 2 2 2 2 2 2 2 2
1 1 2 2 2 1 2 2 2 1 1 0 1 1 1 1 2 2 2 4 3 4 3 2 1 1 2 3 3 2 1 1 1 1 2 2 2 2 1 2 2 2 2
Wind_Direction
142 139 141 141 140 139 139 138 144 146 155 156 174 172 165 159 146 136 124 137 149 166 191 246 195 194 184 207 210 208 230 216 183 187 236 228 220 209 215 207 189 190 185
146 141 142 144 145 145 146 145 147 155 166 160 167 161 150 156 130 108 120 133 146 178 182 204 223 200 190 193 214 217 230 229 192 200 210 226 237 234 211 196 197 195 185
157 155 155 151 150 149 151 155 153 152 161 152 148 141 130 151 136 139 132 126 129 136 195 195 223 230 198 184 216 222 225 244 232 206 221 220 216 220 201 204 196 184 178
161 160 160 160 157 153 150 143 141 143 153 156 159 163 157 153 138 133 140 144 159 166 167 182 199 203 182 204 236 200 254 252 267 222 228 229 123 206 229 235 183 177 176
166 162 163 164 160 153 148 142 136 138 147 159 155 159 150 146 137 133 146 157 160 167 175 186 211 194 168 182 247 215 272 273 278 284 273 248 233 224 210 226 202 198 186
159 157 162 160 159 154 151 148 144 145 146 151 145 144 137 131 132 147 168 179 157 159 171 178 183 201 211 206 213 207 205 245 288 300 298 288 269 252 227 228 227 212 206
159 160 168 163 161 161 156 152 149 152 158 158 154 155 158 167 167 172 177 189 164 158 177 187 195 216 226 206 211 216 222 215 240 265 283 302 298 300 301 261 251 236 225
166 168 167 162 166 163 157 154 155 160 166 165 157 168 180 198 177 182 209 184 153 153 163 184 197 207 218 219 209 212 216 213 228 248 258 282 287 300 305 280 279 276 259
168 168 161 160 164 160 155 153 156 164 168 167 166 174 174 180 178 199 229 160 169 183 149 175 198 213 216 218 210 210 220 208 222 240 258 259 279 288 294 290 284 256 255
160 160 154 156 157 150 148 149 157 168 167 168 177 173 174 180 189 200 189 168 163 171 170 177 216 217 209 211 214 211 213 198 208 214 224 237 268 304 296 298 285 279 268
158 150 145 144 146 149 153 155 161 169 173 174 177 169 178 181 193 205 196 187 187 205 197 199 231 232 216 215 218 225 210 210 216 227 227 235 231 263 289 302 305 294 275
149 140 141 143 154 157 157 158 163 174 178 172 174 178 180 184 196 196 188 190 200 220 209 207 221 238 226 211 214 227 230 225 222 225 238 251 255 258 278 303 304 289 265
117 122 130 141 154 152 154 160 171 177 178 174 180 180 190 189 196 190 193 201 208 218 221 218 217 235 244 226 225 230 233 235 227 223 232 240 247 265 286 295 301 305 301
107 111 107 112 120 135 149 164 177 179 178 178 180 182 189 190 198 199 201 209 217 215 218 224 223 220 228 234 237 239 235 228 213 212 225 229 220 228 267 275 293 298 302
110 107 110 97 87 117 155 170 182 179 174 184 180 184 188 193 200 198 207 212 221 223 211 226 232 234 224 234 227 255 239 226 228 235 232 220 171 173 227 274 280 294 300
111 110 107 96 79 74 197 178 177 167 170 195 188 178 191 196 197 200 205 208 215 222 226 234 237 245 242 161 167 233 243 240 230 230 224 198 177 183 198 232 247 243 247
78 91 87 70 55 11 6 156 175 167 176 195 196 187 201 201 198 204 199 198 196 201 232 245 215 187 177 161 174 227 238 248 242 231 232 244 205 180 213 233 243 251 245
79 74 86 71 31 18 37 38 163 172 175 186 202 202 203 192 189 185 178 173 167 196 223 241 227 182 196 194 196 234 236 244 234 220 225 223 185 209 243 260 258 255 252
69 62 62 81 47 41 52 50 60 163 170 182 197 200 198 185 174 159 157 156 159 190 219 223 218 188 190 215 205 212 240 232 231 224 222 201 151 147 203 265 283 293 282
73 63 55 73 70 44 62 87 62 209 218 206 197 193 167 160 170 159 161 161 166 192 215 207 207 187 158 183 189 208 244 244 242 198 148 117 141 160 194 260 272 276 285
75 66 50 67 73 54 57 99 25 338 301 224 172 151 147 157 160 155 156 153 176 188 201 212 206 196 152 153 167 198 260 280 267 231 182 141 147 179 214 259 267 265 281
75 70 63 64 61 57 52 59 16 337 359 36 121 132 137 168 152 141 152 158 182 190 202 215 224 198 146 146 178 203 244 282 283 279 109 150 185 221 242 244 255 273 283
50 46 68 83 80 66 46 24 8 349 36 57 70 115 131 129 121 139 161 168 191 216 223 209 219 189 133 137 156 199 225 245 275 324 344 253 233 251 252 245 250 258 258
78 69 75 79 74 68 40 19 32 14 40 71 82 115 135 129 131 157 166 164 197 226 239 216 218 174 137 123 133 205 207 202 217 267 265 242 247 257 258 257 238 232 239
119 120 133 119 95 79 64 30 30 56 36 69 129 133 181 158 137 103 44 71 59 54 4 349 346 217 144 127 184 218 229 232 265 285 257 242 234 233 234 236 232 229 228
172 169 163 146 136 125 85 50 22 21 30 358 296 234 200 170 159 137 96 52 78 98 90 66 71 71 121 151 137 126 134 178 199 243 253 262 261 258 253 248 238 228 224